sat.trackr.live / text

‹ back to catalog

METOP-SGA1

NORAD 65159 · 2025-172A

PAYLOAD ACTIVE UNKNOWN

§ Identity

Operator
Country
EUME
Launch date
2025-08-13
Launch site
FRGUI
Launch vehicle
Mass (kg)
RCS (m²)

Purposes: earth_obs

External: N2YO · Heavens-Above · Gunter

§ Orbital elements

Epoch: 2026-05-25T02:55:41.345184Z

Period
101.30 min
Inclination
98.6655°
Eccentricity
0.0001087
Mean motion
14.21505319 rev/d
Perigee alt
819.5 km
Apogee alt
821.0 km
Semi-major
7,198.4 km
B*
3.1989e-5
RAAN
205.2692°
Arg perigee
83.1265°
Mean anomaly
277.0036°
Rev number
4,051

§ Raw data

METOP-SGA11 65159U 25172A   26145.12200631  .00000027  00000+0  31989-4 0  99982 65159  98.6655 205.2692 0001087  83.1265 277.0036 14.21505319 40510

JSON: /api/v1/satellites/65159 · /tle

For live sub-satellite position, see the globe view (requires WebGL).

§ Visibility from observer

Set your observer location to see the next 7 days of passes ≥ 10°. The values pass through the URL so the page stays shareable.

No JS? Fill the form by hand. The geolocation button needs JavaScript.